FALCON 9 R/B, 44480

Orbit data source: Space-Track

FALCON 9 R/B, 44480 is space debris in HEO originally from a launch on Tue, 06 Aug 2019 UTC launched from the Air Force Eastern Test Range (AFETR). Debris objects in space refer to the collection of defunct objects orbiting the Earth. Examples of debris include non-operational satellites, rocket bodies, and fragments generated from explosions, collisions, or faulty payload assembly.

Loading next visibility...
Identifier
44480, 2019-050B
Orbit
HEO
Country
Flag of USUS
Related business
Manufacturer
SpaceX
Mission
Spacecraft
Bus & Motor
F9ST2, Unknown motor
Mass
~4,000 kg wet, ~4,000 kg dry
Launch date (UTC)
2019-08-06 (7 years ago)
Launch vehicle
Unknown
Launch site
Air Force Eastern Test Range (AFETR)
Object type
Payload
Rocket body
Debris
Shape & HBR
Cyl, 7.8 m
Radar Cross Section
39.980 m², Large (>1 m²)

Expand to show TLE details & history
Last TLE update: 5 days ago

TLE from 5 days ago
0 FALCON 9 R/B
1 44480U 19050B   26168.32797301  .00061590 -20367-6  11492-2 0  9995
2 44480  26.0811 115.3300 5753355 121.3449 307.4087  4.51647868 80264
Epoch: 2026-06-17T07:52Z
TLE epoch observation values (Epoch: 2026-06-17T07:52:16.868Z)
Latitude
0.00017°
Longitude
91.63333°
Altitude
8,383.699 km
Speed
5.313 km/s
True Right ascension
07h 41m 09s
True Declination
0° 00' 01"
Sunlit
Object was in daylight at epoch
Visualization orbit readout
Latitude
Unknown
Longitude
Unknown
Altitude
Unknown
Speed
Unknown
Apparent Right ascension
Unknown
Apparent Declination
Unknown
Sunlit
N/A
Visualization observer readout
Local Sidereal Time
21:38:19
Azimuth
Unknown
Elevation
Unknown
Doppler factor
Unknown
Orbital elements
Apogee altitude
17,981.962 km
Perigee altitude
188.635 km
Semi-major axis
15,463.436 km
Eccentricity
0.57534
Inclination
26.0811°
RAAN
115.33°
Arg. of periapsis
121.3449°
True anomaly
238.68451°
Mean anomaly
307.4087°
Eccentric anomaly
274.54821°
Mean motion
1.12871 °/min
Orbital period
318.95 mins
BSTAR
0.0011492
Loading maneuver chart data...
Computing Atmospheric mass density...
Loading historical data...
Loading historical data...
Loading historical data...
Loading historical data...
Loading historical data...
Loading historical data...
Loading historical data...
Other satellites on launch #50 in the year 2019 (2019-08-06 UTC)

Documentation

Showing up to 5 results
|